Weather History for KMLI - November, 2013

Change the Weather History Date:

Sunday, November 17, 2013

  Actual Average Record
Temperature  
Mean Temperature 57 °F 39 °F  
Max Temperature 71 °F 48 °F 74 °F (1941)
Min Temperature 43 °F 30 °F -1 °F (1959)
Degree Days  
Heating Degree Days 8 26  
Month to date heating degree days 378 365  
Since 1 July heating degree days 877 847  
Cooling Degree Days 0 0  
Month to date cooling degree days 0 0  
Year to date cooling degree days 998 1003  
Growing Degree Days 7 (Base 50)    
Moisture  
Dew Point 48 °F    
Average Humidity 80    
Maximum Humidity 93    
Minimum Humidity 66    
Precipitation  
Precipitation 0.28 in 0.09 in 1.02 in (1952)
Month to date precipitation 0.81 1.48  
Year to date precipitation 37.61 34.70  
Snow  
Snow 0.00 in 0.00 in - ()
Month to date snowfall 0.6 0.2  
Since 1 July snowfall 1.0 0.2  
Since 1 September snowfall 1.0 0.2  
Snow Depth 0.00 in    
Sea Level Pressure  
Sea Level Pressure 29.46 in    
Wind  
Wind Speed 15 mph (WSW)    
Max Wind Speed 36 mph    
Max Gust Speed 45 mph    
Visibility 9 miles    
Events Rain , Thunderstorm    
T = Trace of Precipitation, MM = Missing Value Source: NWS Daily Summary

Daily Weather History Graph

Daily Weather History Graph

Search for Another Location

Airport or City:

Trip Planner

Search our weather history database for the weather conditions in past years. The results will help you decide how hot, cold, wet, or windy it might be!

Date:

Astronomy

Nov. 17, 2013 Rise Set
Actual Time 6:53 AM CST 4:40 PM CST
Civil Twilight 6:23 AM CST 5:10 PM CST
Nautical Twilight 5:49 AM CST 5:43 PM CST
Astronomical Twilight 5:16 AM CST 6:16 PM CST
Moon 4:57 PM CST (11/17) 6:47 AM CST (11/17)
Length of Visible Light 10h 46m
Length of Day
9h 47m
Full, 100% of the Moon is Illuminated
Nov 17
Full
Nov 25
Last Quarter
Dec 2
New
Dec 9
First Quarter
Dec 17
Full

Hourly Weather History & Observations

Time (CST) Temp. Windchill Dew Point Humidity Pressure Visibility Wind Dir Wind Speed Gust Speed Precip Events Conditions
12:23 AM 59.0 °F - 55.4 °F 88% 29.53 in 4.0 mi SSW 20.7 mph 29.9 mph 0.05 in Rain , Thunderstorm Rain
12:38 AM 57.2 °F - 55.4 °F 94% 29.52 in 7.0 mi SSW 16.1 mph 26.5 mph 0.10 in Rain Light Rain
12:52 AM 57.9 °F - 54.0 °F 87% 29.50 in 8.0 mi South 12.7 mph - 0.12 in Rain Light Rain
1:52 AM 55.0 °F - 53.1 °F 93% 29.47 in 10.0 mi SE 5.8 mph - 0.01 in   Partly Cloudy
2:52 AM 57.0 °F - 55.0 °F 93% 29.45 in 10.0 mi SSE 6.9 mph - N/A   Overcast
3:23 AM 57.2 °F - 55.4 °F 94% 29.44 in 9.0 mi NNE 5.8 mph - N/A   Overcast
3:33 AM 57.2 °F - 55.4 °F 94% 29.44 in 10.0 mi SE 4.6 mph - N/A   Overcast
3:52 AM 57.0 °F - 55.0 °F 93% 29.43 in 9.0 mi Calm Calm - N/A   Overcast
4:52 AM 57.9 °F - 55.0 °F 90% 29.39 in 9.0 mi SSE 10.4 mph - N/A   Overcast
5:52 AM 60.1 °F - 57.0 °F 90% 29.35 in 10.0 mi SSE 11.5 mph - N/A   Overcast
6:52 AM 62.1 °F - 57.9 °F 86% 29.32 in 10.0 mi South 13.8 mph 23.0 mph N/A   Partly Cloudy
7:52 AM 64.0 °F - 60.1 °F 87% 29.31 in 10.0 mi South 12.7 mph - N/A   Clear
8:32 AM 64.4 °F - 60.8 °F 88% 29.30 in 10.0 mi SSW 12.7 mph 20.7 mph N/A   Mostly Cloudy
8:52 AM 64.9 °F - 60.1 °F 84% 29.29 in 10.0 mi South 16.1 mph 25.3 mph N/A   Mostly Cloudy
9:04 AM 64.4 °F - 60.8 °F 88% 29.29 in 10.0 mi South 16.1 mph 26.5 mph N/A   Scattered Clouds
9:52 AM 66.9 °F - 61.0 °F 81% 29.26 in 10.0 mi SSW 17.3 mph 28.8 mph N/A   Partly Cloudy
10:52 AM 70.0 °F - 59.0 °F 68% 29.19 in 10.0 mi SW 20.7 mph 31.1 mph N/A   Clear
11:15 AM 69.8 °F - 57.2 °F 64% 29.18 in 10.0 mi WSW 21.9 mph 34.5 mph N/A Thunderstorm Mostly Cloudy
11:28 AM 57.2 °F - 53.6 °F 88% 29.20 in 2.0 mi WNW 18.4 mph 40.3 mph 0.00 in Rain , Thunderstorm Thunderstorms and Rain
11:32 AM 55.4 °F - 51.8 °F 88% 29.20 in 1.2 mi WNW 21.9 mph 31.1 mph 0.08 in Rain , Thunderstorm Heavy Thunderstorms and Rain
11:38 AM 55.4 °F - 51.8 °F 88% 29.21 in 2.0 mi NW 26.5 mph 35.7 mph 0.12 in Rain , Thunderstorm Light Thunderstorms and Rain
11:52 AM 54.0 °F - 52.0 °F 93% 29.21 in 4.0 mi WNW 13.8 mph 33.4 mph 0.14 in Rain , Thunderstorm Rain
12:03 PM 53.6 °F - 51.8 °F 94% 29.19 in 8.0 mi WNW 16.1 mph 21.9 mph 0.01 in Rain Light Rain
12:15 PM 51.8 °F - 48.2 °F 88% 29.24 in 10.0 mi WNW 23.0 mph 32.2 mph 0.01 in   Overcast
12:34 PM 51.8 °F - 46.4 °F 82% 29.30 in 10.0 mi WNW 23.0 mph 33.4 mph 0.01 in   Overcast
12:52 PM 52.0 °F - 43.0 °F 71% 29.33 in 10.0 mi WNW 21.9 mph 38.0 mph 0.01 in   Overcast
1:00 PM 51.8 °F - 42.8 °F 71% 29.33 in 10.0 mi WNW 33.4 mph 44.9 mph N/A   Overcast
1:10 PM 50.0 °F - 42.8 °F 76% 29.34 in 10.0 mi WNW 24.2 mph 44.9 mph N/A   Overcast
1:52 PM 48.9 °F - 42.1 °F 77% 29.41 in 10.0 mi WNW 20.7 mph 39.1 mph N/A   Overcast
2:38 PM 48.2 °F - 41.0 °F 76% 29.47 in 10.0 mi West 20.7 mph 34.5 mph N/A   Overcast
2:52 PM 48.0 °F - 39.9 °F 74% 29.49 in 10.0 mi West 24.2 mph 34.5 mph N/A   Overcast
3:06 PM 48.2 °F - 39.2 °F 71% 29.50 in 10.0 mi WNW 16.1 mph 31.1 mph N/A   Overcast
3:34 PM 48.2 °F - 39.2 °F 71% 29.54 in 10.0 mi West 24.2 mph 34.5 mph N/A   Overcast
3:52 PM 48.9 °F - 41.0 °F 74% 29.56 in 10.0 mi West 18.4 mph 32.2 mph N/A   Overcast
4:37 PM 48.2 °F - 41.0 °F 76% 29.60 in 10.0 mi West 17.3 mph 25.3 mph N/A   Scattered Clouds
4:52 PM 48.9 °F - 39.9 °F 71% 29.61 in 10.0 mi West 21.9 mph 28.8 mph N/A   Partly Cloudy
5:32 PM 48.2 °F - 41.0 °F 76% 29.66 in 10.0 mi WNW 16.1 mph 26.5 mph N/A   Overcast
5:40 PM 48.2 °F - 39.2 °F 71% 29.67 in 10.0 mi West 23.0 mph 32.2 mph N/A   Overcast
5:52 PM 48.0 °F - 37.9 °F 68% 29.67 in 10.0 mi West 18.4 mph 32.2 mph N/A   Overcast
6:52 PM 46.9 °F - 39.0 °F 74% 29.71 in 10.0 mi West 16.1 mph 23.0 mph N/A   Mostly Cloudy
7:52 PM 46.0 °F 39.3 °F 37.0 °F 71% 29.76 in 10.0 mi West 16.1 mph 26.5 mph N/A   Clear
8:52 PM 45.0 °F 38.9 °F 37.0 °F 74% 29.80 in 10.0 mi West 12.7 mph 23.0 mph N/A   Clear
9:52 PM 44.1 °F 38.1 °F 37.0 °F 76% 29.81 in 10.0 mi West 11.5 mph - N/A   Clear
10:52 PM 43.0 °F 36.0 °F 37.9 °F 82% 29.84 in 10.0 mi West 13.8 mph - N/A   Clear
11:52 PM 44.1 °F 36.8 °F 36.0 °F 73% 29.88 in 10.0 mi West 16.1 mph 26.5 mph N/A   Clear